Tracking 28790 objects as of 19-Apr-2024
HD Live streaming from Space Station
objects crossing your sky now

FENGYUN 1C DEB

Track FENGYUN 1C DEB now!
10-day predictions


NORAD ID: 37476
Int'l Code: 1999-025EJW
Perigee: 859.2 km
Apogee: 2,622.4 km
Inclination: 98.9 °
Period: 121.2 minutes
Semi major axis: 8111 km
RCS: 0.002 m2 (small)
Launch date: May 10, 1999
Source: People's Republic of China (PRC)
Launch site: Taiyaun Space Center, China (TSC)

Note: This is SATELLITE DEBRIS
Your satellite tracking list
Your tracking list is empty




NASA's NSSDC Master Catalog

Two Line Element Set (TLE):
1 37476U 99025EJW 24106.82271728  .00002364  00000-0  63724-2 0  9991
2 37476  98.9467 315.1767 1086813 320.2486  32.3600 11.88295693602378
Source of the keplerian elements: AFSPC